Zurück zum Katalog

INTELSAT 702

AktivKommunikationGEO
NORAD 23124·PAYLOAD· XX

Gestartet Jun 17, 1994 von Guiana Space Centre

Loading…

TLE

AktuellSource: Space-Track

Epoche: Sep 14, 2026, 05:58 UTC

1 23124U 94034A   26257.24890419 -.00000285  00000-0  00000-0 0  9997
2 23124  11.2334  43.9913 0010053  45.6276 145.6104  0.98942751131760

Verfolge INTELSAT 702 in Echtzeit mit AllMySat

Download on the App Store